Regional Weather Roundup
Issued by NWS

Home | Current Version | Previous Version | Text Only | Print | Product List | Glossary Off
Versions: 1 2 3 4 5 6 7 8 9 10 11 12 13 14 15 16 17 18 19 20 21 22 23 24 25 26 27 28 29 30 31 32 33 34 35 36 37 38 39 40 41 42 43 44 45 46 47 48 49 50

000
ASUS45 KSLC 300810
RWRUT

UTAH REGIONAL WEATHER ROUNDUP
NATIONAL WEATHER SERVICE SALT LAKE CITY UT
200 AM MDT FRI SEP 30 2016

UTZ001>011-023>025-300900-

NORTHERN UTAH

CITY           SKY/WX    TMP DP  RH WIND       PRES   REMARKS
BRIGHAM CITY     N/A     55  52  88 CALM      30.19S
HILL AFB       MOCLDY    62  48  60 SE7       30.20F
LOGAN          MOCLDY    52  50  93 CALM      30.20F
OGDEN          MOCLDY    60  49  66 S8        30.18F
PROVO AIRPORT  PTCLDY    61  48  62 SE12      30.23S
SALT LAKE CITY MOCLDY    66  51  58 SE9       30.18S
VERNAL         CLOUDY    51  49  92 NW6       30.31S
WENDOVER       CLEAR     59  48  67 E5        30.17S
HEBER CITY     CLEAR     57  43  58 CALM      30.28R
WEST JORDAN    CLOUDY    63  49  60 SE13      30.21S

$$

UTZ012>022-026-027-300900-

SOUTHERN/CENTRAL UTAH

CITY           SKY/WX    TMP DP  RH WIND       PRES   REMARKS
BLANDING       MOCLDY    53  51  93 N5        30.44S
BRYCE CANYON   CLOUDY    48  46  93 CALM      30.44S
CEDAR CITY     CLEAR     52  46  80 SW5       30.29F
DELTA          PTCLDY    61  45  55 S10       30.22F
MILFORD        CLEAR     57  47  69 SW9       30.25
MOAB/CYNLANDS  CLOUDY    61  55  81 SE3       30.28F
PRICE          CLOUDY    54  51  90 NE3       30.35S
ST GEORGE      SUNNY     66  54  63 E6        30.20S

$$

REGIONAL REPORTS     COLORADO/ARIZONA

CITY           SKY/WX    TMP DP  RH WIND       PRES   REMARKS
CRAIG, CO      LGT RAIN  53  51  93 NW5       30.37R
GRAND JUNCTION LGT RAIN  58  55  90 SE8       30.33R
RIFLE          CLOUDY    57  55  93 CALM      30.35S
MONTROSE       LGT RAIN  55  52  89 SE3       30.39F
CORTEZ         CLOUDY    53  51  93 NE3       30.38F
PAGE, AZ       PTCLDY    63  58  83 S3        30.28S
GRAND CANYON   MOCLDY    50  48  93 NE5       30.39S
KINGMAN        PTCLDY    70  52  52 SE14      30.18S
FLAGSTAFF      FOG       50  50 100 E3        30.41F VSB 1/4

$$

REGIONAL REPORTS    NEVADA/IDAHO/WYOMING

CITY           SKY/WX    TMP DP  RH WIND       PRES   REMARKS
LAS VEGAS, NV  PTCLDY    76  44  32 CALM      30.07S
ELY            CLOUDY    52  40  63 S9        30.30S
ELKO           MOCLDY    59  46  62 CALM      30.19F
POCATELLO, ID  CLEAR     54  48  80 E6        30.18
BURLEY         MOCLDY    56  49  77 CALM      30.13R
EVANSTON, WY   CLOUDY    51  41  68 SW6       30.34F
ROCK SPRINGS   CLOUDY    51  45  79 S6        30.32S

$$



USA.gov is the U.S. government's official web portal to all federal, state and local government web resources and services.